[[{"header":{"parameterUnit":"m.s-1","parameterCategory":1,"la1":30.2991,"la2":30.254,"lo1":-89.0895,"lo2":-89.0444,"dy":0.0017,"dx":0.0017,"nx":28,"ny":28,"refTime":"2026-02-07T09:00:00:Z","depth":0,"parameterNumber":2,"parameterNumberName":"U-component_of_WINDS"},"data":[0,0,0,0,0,0,0,0,0,0,0,0,0,0,0,0,0,0,0,0,0,0,0,0,0,0,0,0,0,0,0,0,0,0,0,0,0,0,0,0,0,0,0,0,0,0,0,0,0,0,0,0,0,0,0,0,0,0,-0.5677,-0.5676,0,-0.5612,-0.5611,-0.561,-0.5584,-0.5584,-0.5584,-0.5585,-0.5517,-0.5515,-0.5513,0,0,0,0,0,0,0,0,0,0,0,0,0,-0.5778,-0.5776,-0.5677,-0.5676,-0.5675,-0.5612,-0.5611,-0.561,-0.5584,-0.5584,-0.5585,-0.5585,-0.5518,-0.5515,-0.5513,0,0,0,0,0,0,0,0,0,0,0,0,0,-0.5726,-0.5776,-0.5677,-0.5655,-0.5652,-0.5612,-0.5611,-0.561,-0.5584,-0.5584,-0.5585,-0.5585,-0.5518,-0.5516,-0.5513,-0.549,0,0,-0.5504,-0.5502,0,0,0,0,0,0,0,0,-0.5729,-0.5722,-0.5659,-0.5656,-0.5653,-0.5606,-0.5622,-0.5569,-0.5584,-0.561,-0.5585,-0.5585,-0.5547,-0.5541,-0.5528,-0.5486,-0.5484,-0.5503,-0.5502,-0.55,-0.55,0,0,0,0,0,0,0,-0.5732,-0.5725,-0.5651,-0.5658,-0.5655,-0.5648,-0.564,-0.5612,-0.5578,-0.5608,-0.5606,-0.5598,-0.5545,-0.5531,-0.5527,-0.5483,-0.5504,-0.5501,-0.5499,-0.5498,-0.5418,-0.5417,0,0,0,0,0,0,-0.574,-0.5728,-0.5653,-0.5649,-0.5692,-0.5646,-0.5638,-0.5621,-0.5578,-0.5571,-0.5598,-0.5597,-0.5536,-0.553,-0.5524,-0.5494,-0.55,-0.5498,-0.5496,-0.5418,-0.5418,-0.5417,0,0,0,0,0,0,-0.5742,-0.5733,-0.5656,-0.5688,-0.5678,-0.5644,-0.5625,-0.562,-0.5606,-0.5571,-0.5564,-0.5591,-0.5536,-0.5528,-0.5498,-0.5491,-0.5496,-0.5494,-0.5418,-0.5418,-0.5417,-0.5433,0,0,0,0,0,0,-0.5745,-0.5734,-0.5726,-0.5688,-0.5676,-0.5631,-0.5625,-0.5618,-0.5601,-0.5599,-0.5562,-0.5556,-0.5536,-0.5503,-0.5495,-0.5487,-0.5491,-0.5419,-0.5418,-0.5418,-0.5433,-0.5433,-0.5434,0,0,0,0,0,-0.5749,-0.5733,-0.5725,-0.5716,-0.5664,-0.5631,-0.5624,-0.5602,-0.5601,-0.5591,-0.5568,-0.5557,-0.5493,-0.55,-0.5491,-0.5482,-0.5419,-0.5418,-0.5418,-0.5433,-0.5433,-0.5434,0,0,0,0,0,0,-0.577,-0.5727,-0.5719,-0.569,-0.5664,-0.5627,-0.5614,-0.5603,-0.5577,-0.5576,-0.5549,-0.5541,-0.5513,-0.5494,-0.5503,-0.5457,-0.5455,-0.5453,-0.547,-0.547,-0.547,-0.5475,-0.5489,0,0,0,0,0,-0.5772,-0.5749,-0.5712,-0.569,-0.5678,-0.5649,-0.5633,-0.5618,-0.559,-0.5579,-0.5554,-0.5528,-0.5501,-0.5485,-0.5459,-0.5431,-0.5422,-0.542,-0.542,-0.542,-0.5418,-0.5402,-0.54,-0.5414,-0.5414,-0.5414,0,0,-0.5774,-0.5748,-0.5735,-0.5694,-0.5673,-0.5649,-0.564,-0.5615,-0.5597,-0.5575,-0.5546,-0.5526,-0.5495,-0.5465,-0.5451,-0.5449,-0.5413,-0.5419,-0.542,-0.5418,-0.5401,-0.5399,-0.5398,-0.5414,-0.5414,-0.5414,0,0,-0.5767,-0.5745,-0.5724,-0.5703,-0.567,-0.565,-0.5646,-0.5609,-0.5596,-0.5565,-0.5549,-0.5527,-0.5482,-0.546,-0.5443,-0.5427,-0.5415,-0.5419,-0.542,-0.5404,-0.5403,-0.5402,-0.5395,-0.5394,-0.5418,-0.5418,-0.5418,0,-0.5774,-0.5738,-0.5715,-0.5691,-0.5673,-0.5653,-0.5631,-0.5611,-0.5572,-0.556,-0.5558,-0.5502,-0.5479,-0.5444,-0.544,-0.5427,-0.542,-0.5424,-0.5405,-0.5403,-0.5402,-0.5396,-0.5394,-0.5418,-0.5418,-0.5418,-0.5418,0,-0.5749,-0.5724,-0.5711,-0.5674,-0.5654,-0.5632,-0.5604,-0.5588,-0.5574,-0.5554,-0.5523,-0.5495,-0.5463,-0.5454,-0.544,-0.5417,-0.5416,-0.541,-0.5408,-0.5402,-0.5396,-0.5393,-0.5419,-0.5419,-0.5419,-0.5419,0,0,-0.5754,-0.5703,-0.5699,-0.5681,-0.5643,-0.5624,-0.56,-0.5568,-0.5554,-0.5528,-0.5507,-0.547,-0.5463,-0.5444,-0.5428,-0.5414,-0.5402,-0.5409,-0.5408,-0.5409,-0.5374,-0.5379,-0.5377,-0.5394,-0.5394,-0.5393,-0.5377,0,-0.5741,-0.5698,-0.5676,-0.5642,-0.5619,-0.5598,-0.5578,-0.5552,-0.5533,-0.551,-0.5489,-0.5463,-0.5457,-0.5445,-0.543,-0.5407,-0.5395,-0.5408,-0.5374,-0.5373,-0.5383,-0.5373,-0.5378,-0.5364,-0.5374,-0.5374,-0.5373,0,-0.5721,-0.5694,-0.5658,-0.5623,-0.5612,-0.5594,-0.5563,-0.5541,-0.5512,-0.5499,-0.5477,-0.5461,-0.5435,-0.5434,-0.5397,-0.5407,-0.5392,-0.5378,-0.5377,-0.5373,-0.5373,-0.5369,-0.5359,-0.5356,-0.5369,-0.537,-0.537,0,-0.5727,-0.5683,-0.5655,-0.5641,-0.5599,-0.5586,-0.5568,-0.5539,-0.5521,-0.5494,-0.5482,-0.5453,-0.5436,-0.5413,-0.5389,-0.5391,-0.5355,-0.5352,-0.5343,-0.5344,-0.5336,-0.5337,-0.5323,-0.5327,-0.5327,-0.5327,-0.5327,0,-0.5715,-0.5694,-0.5657,-0.5641,-0.5616,-0.559,-0.5566,-0.5547,-0.5521,-0.5499,-0.548,-0.546,-0.543,-0.5406,-0.5388,-0.536,-0.5352,-0.5341,-0.5336,-0.5343,-0.5344,-0.5332,-0.5333,-0.5326,-0.5326,-0.5327,-0.5327,0,-0.5719,-0.5693,-0.5662,-0.5625,-0.5615,-0.5598,-0.5566,-0.5549,-0.5529,-0.5502,-0.5494,-0.5462,-0.5433,-0.5407,-0.5369,-0.5356,-0.5328,-0.5322,-0.5338,-0.5335,-0.5327,-0.5328,-0.5305,-0.5301,-0.5308,-0.5308,-0.5308,0,-0.5713,-0.5696,-0.5657,-0.5641,-0.5623,-0.5598,-0.558,-0.5554,-0.5536,-0.5501,-0.5487,-0.5457,-0.5431,-0.5386,-0.5359,-0.533,-0.5323,-0.5317,-0.5318,-0.5325,-0.5322,-0.5324,-0.5322,-0.5317,-0.5317,-0.5317,-0.5317,0,-0.5705,-0.5693,-0.5668,-0.5638,-0.5617,-0.5592,-0.5567,-0.5555,-0.5524,-0.5504,-0.5475,-0.5455,-0.5415,-0.5385,-0.5353,-0.5334,-0.532,-0.5317,-0.5313,-0.532,-0.5329,-0.5324,-0.5338,-0.5318,-0.5318,-0.5318,-0.5318,-0.5318,-0.5703,-0.5687,-0.5657,-0.5629,-0.5607,-0.5584,-0.5565,-0.5543,-0.5518,-0.5484,-0.547,-0.5439,-0.5409,-0.5364,-0.5345,-0.5321,-0.5318,-0.5313,-0.5311,-0.531,-0.5311,-0.5334,-0.5315,-0.5315,-0.5315,-0.5315,-0.5315,0,-0.5694,-0.5673,-0.5648,-0.5613,-0.5591,-0.558,-0.5552,-0.5534,-0.5507,-0.5481,-0.5456,-0.5421,-0.5392,-0.5363,-0.5332,-0.5318,-0.5311,-0.5311,-0.5312,-0.5307,-0.5316,-0.5322,-0.5317,-0.5317,-0.5317,-0.5317,-0.5317,-0.5317,-0.5686,-0.5658,-0.5643,-0.5603,-0.5583,-0.5553,-0.5538,-0.5516,-0.5494,-0.5457,-0.5432,-0.5414,-0.5386,-0.5352,-0.5325,-0.5317,-0.5306,-0.5308,-0.5298,-0.5307,-0.5307,-0.5307,-0.5313,-0.5306,-0.5306,-0.5292,-0.5292,-0.5292]},{"header":{"parameterUnit":"m.s-1","parameterCategory":1,"la1":30.2991,"la2":30.254,"lo1":-89.0895,"lo2":-89.0444,"dy":0.0017,"dx":0.0017,"nx":28,"ny":28,"refTime":"2026-02-07T09:00:00:Z","depth":0,"parameterNumber":3,"parameterNumberName":"V-component_of_WINDS"},"data":[0,0,0,0,0,0,0,0,0,0,0,0,0,0,0,0,0,0,0,0,0,0,0,0,0,0,0,0,0,0,0,0,0,0,0,0,0,0,0,0,0,0,0,0,0,0,0,0,0,0,0,0,0,0,0,0,0,0,-1.8199,-1.8199,0,-1.8255,-1.8255,-1.8256,-1.8356,-1.8358,-1.836,-1.8362,-1.8413,-1.8413,-1.8412,0,0,0,0,0,0,0,0,0,0,0,0,0,-1.8175,-1.8175,-1.8199,-1.8199,-1.82,-1.8255,-1.8256,-1.8256,-1.8356,-1.8358,-1.836,-1.8363,-1.8413,-1.8413,-1.8412,0,0,0,0,0,0,0,0,0,0,0,0,0,-1.8203,-1.8175,-1.8199,-1.8257,-1.8262,-1.8255,-1.8256,-1.8256,-1.8355,-1.8358,-1.8361,-1.8364,-1.8414,-1.8413,-1.8412,-1.8351,0,0,-1.841,-1.841,0,0,0,0,0,0,0,0,-1.8202,-1.8204,-1.8247,-1.8253,-1.8259,-1.8302,-1.8266,-1.8288,-1.8354,-1.832,-1.8362,-1.8365,-1.8373,-1.8376,-1.838,-1.8353,-1.8356,-1.841,-1.841,-1.841,-1.841,0,0,0,0,0,0,0,-1.82,-1.8202,-1.8221,-1.8248,-1.8255,-1.8279,-1.8286,-1.8271,-1.8329,-1.8323,-1.833,-1.8336,-1.8377,-1.8381,-1.8382,-1.8356,-1.841,-1.841,-1.841,-1.8409,-1.8285,-1.8283,0,0,0,0,0,0,-1.819,-1.82,-1.8219,-1.8223,-1.8237,-1.8277,-1.8285,-1.8285,-1.833,-1.834,-1.8333,-1.834,-1.838,-1.8383,-1.8384,-1.8318,-1.841,-1.8409,-1.8409,-1.8288,-1.8285,-1.8282,0,0,0,0,0,0,-1.8189,-1.819,-1.8217,-1.8213,-1.8219,-1.8274,-1.8273,-1.8284,-1.8288,-1.8338,-1.8349,-1.8327,-1.8383,-1.8385,-1.836,-1.8321,-1.8409,-1.8408,-1.8292,-1.8287,-1.8283,-1.8183,0,0,0,0,0,0,-1.8188,-1.8189,-1.8167,-1.8212,-1.8218,-1.8192,-1.8271,-1.8283,-1.8288,-1.8297,-1.8334,-1.8343,-1.8385,-1.836,-1.8359,-1.8322,-1.8408,-1.8296,-1.829,-1.8285,-1.819,-1.8176,-1.8164,0,0,0,0,0,-1.8186,-1.8135,-1.8166,-1.8167,-1.8192,-1.8189,-1.8193,-1.8244,-1.8284,-1.8262,-1.8295,-1.8342,-1.8325,-1.8357,-1.8356,-1.8318,-1.8298,-1.8291,-1.8285,-1.8196,-1.8179,-1.8164,0,0,0,0,0,0,-1.8081,-1.8141,-1.8176,-1.8138,-1.8158,-1.8206,-1.818,-1.8223,-1.8231,-1.8239,-1.83,-1.8308,-1.8275,-1.8294,-1.8328,-1.8263,-1.8319,-1.8312,-1.8252,-1.8236,-1.8223,-1.8219,-1.8407,0,0,0,0,0,-1.8053,-1.8048,-1.81,-1.8061,-1.807,-1.8123,-1.8124,-1.8162,-1.8184,-1.8193,-1.8223,-1.8242,-1.8242,-1.824,-1.8241,-1.8193,-1.8204,-1.8167,-1.8154,-1.8143,-1.8136,-1.8115,-1.81,-1.826,-1.826,-1.826,0,0,-1.7996,-1.8028,-1.802,-1.8041,-1.8061,-1.8054,-1.8129,-1.8117,-1.8112,-1.819,-1.8169,-1.8192,-1.8217,-1.8181,-1.8167,-1.8196,-1.8095,-1.8135,-1.8125,-1.8125,-1.8107,-1.8092,-1.8078,-1.8256,-1.8257,-1.8257,0,0,-1.7888,-1.7911,-1.7883,-1.7903,-1.7934,-1.797,-1.7963,-1.8005,-1.8025,-1.8005,-1.8065,-1.8059,-1.8056,-1.8072,-1.808,-1.7982,-1.8027,-1.7981,-1.7912,-1.789,-1.7878,-1.7867,-1.7834,-1.7821,-1.7974,-1.7974,-1.7973,0,-1.7812,-1.7804,-1.7862,-1.7848,-1.7856,-1.7929,-1.7902,-1.7917,-1.7945,-1.7949,-1.7982,-1.7983,-1.8004,-1.7975,-1.7951,-1.7954,-1.7949,-1.7977,-1.7875,-1.7865,-1.7856,-1.7825,-1.7812,-1.7968,-1.7969,-1.7969,-1.797,0,-1.7711,-1.7705,-1.7678,-1.7708,-1.7712,-1.7691,-1.7745,-1.7743,-1.7781,-1.7814,-1.7794,-1.7823,-1.7834,-1.7829,-1.7865,-1.7805,-1.7823,-1.7864,-1.7923,-1.7834,-1.7806,-1.7795,-1.796,-1.7962,-1.7964,-1.7965,0,0,-1.7536,-1.7601,-1.759,-1.7606,-1.7647,-1.7643,-1.7625,-1.7638,-1.7636,-1.7654,-1.7641,-1.7639,-1.7679,-1.7688,-1.7726,-1.7707,-1.7631,-1.7752,-1.7753,-1.773,-1.7569,-1.7539,-1.7524,-1.766,-1.7658,-1.7657,-1.7568,0,-1.7438,-1.7414,-1.7467,-1.7429,-1.7426,-1.7497,-1.7482,-1.7505,-1.7535,-1.7535,-1.7568,-1.7567,-1.7619,-1.7625,-1.761,-1.7643,-1.7599,-1.765,-1.7649,-1.7649,-1.7643,-1.751,-1.7477,-1.7392,-1.7557,-1.7556,-1.7554,0,-1.732,-1.7336,-1.7298,-1.7345,-1.7345,-1.7331,-1.7349,-1.7349,-1.7377,-1.74,-1.7412,-1.7458,-1.7444,-1.75,-1.7482,-1.7515,-1.7518,-1.7535,-1.7533,-1.7536,-1.7597,-1.751,-1.7365,-1.7353,-1.7537,-1.7539,-1.754,0,-1.7199,-1.721,-1.7191,-1.7202,-1.7255,-1.7244,-1.7265,-1.7296,-1.7302,-1.7317,-1.7321,-1.7333,-1.734,-1.7348,-1.7397,-1.7432,-1.7374,-1.7432,-1.7393,-1.7392,-1.7378,-1.7378,-1.7233,-1.7377,-1.7377,-1.7377,-1.7378,0,-1.7085,-1.7059,-1.7138,-1.7126,-1.7101,-1.7162,-1.7135,-1.7163,-1.719,-1.7185,-1.7246,-1.7239,-1.7303,-1.7303,-1.734,-1.7321,-1.7323,-1.7342,-1.7352,-1.7337,-1.7335,-1.7341,-1.7349,-1.7374,-1.7375,-1.7375,-1.7376,0,-1.6945,-1.6997,-1.6981,-1.7034,-1.7046,-1.7025,-1.707,-1.7061,-1.7097,-1.7089,-1.7091,-1.7146,-1.715,-1.7199,-1.7212,-1.7237,-1.7204,-1.7224,-1.7195,-1.7203,-1.7161,-1.7165,-1.7016,-1.7,-1.7152,-1.715,-1.7149,0,-1.687,-1.6853,-1.6905,-1.6908,-1.6927,-1.6928,-1.6936,-1.6996,-1.7001,-1.7034,-1.7021,-1.703,-1.7041,-1.7043,-1.7084,-1.7095,-1.7117,-1.7064,-1.7119,-1.7106,-1.7119,-1.712,-1.712,-1.7053,-1.7051,-1.7049,-1.7048,0,-1.673,-1.6758,-1.6767,-1.6786,-1.6794,-1.6811,-1.6832,-1.6829,-1.6895,-1.6898,-1.6904,-1.6913,-1.6929,-1.6938,-1.6957,-1.6978,-1.7024,-1.703,-1.7022,-1.7007,-1.6992,-1.7002,-1.7165,-1.7034,-1.7035,-1.7036,-1.7037,-1.7037,-1.6622,-1.6612,-1.6649,-1.6658,-1.6681,-1.6699,-1.6695,-1.6731,-1.6738,-1.6758,-1.6792,-1.6794,-1.6825,-1.6856,-1.6873,-1.6875,-1.6902,-1.689,-1.6887,-1.6883,-1.6876,-1.6991,-1.6878,-1.6879,-1.6879,-1.6879,-1.688,0,-1.6488,-1.6517,-1.6524,-1.6554,-1.6561,-1.6607,-1.6633,-1.6635,-1.6637,-1.6663,-1.6674,-1.6682,-1.6692,-1.6734,-1.6749,-1.6742,-1.6764,-1.6744,-1.6746,-1.675,-1.685,-1.6857,-1.6726,-1.6726,-1.6726,-1.6726,-1.6726,-1.6726,-1.642,-1.6406,-1.6438,-1.6437,-1.6464,-1.6469,-1.648,-1.6498,-1.652,-1.6527,-1.6537,-1.6566,-1.6599,-1.6616,-1.6628,-1.664,-1.6643,-1.6616,-1.6635,-1.6728,-1.6743,-1.6757,-1.6764,-1.6616,-1.6616,-1.6536,-1.6536,-1.6535]}]]